This is the latest recevied weather packets stored in our database for station/object KC3UTO. If no packets are shown the sender has not sent any weather packets the latest 10 day(s).
| Time | Temp. | Humidity | Pressure | Rain* | Wind** | Luminosity | Snow |
|---|---|---|---|---|---|---|---|
| 1777129466 | 11.11° C | 68% | 1014.7 hPa | 0 mm | - | 240 W/m² | - |
| 1777129164 | 10.56° C | 69% | 1014.8 hPa | 0 mm | - | 194 W/m² | - |
| 1777128861 | 10.56° C | 69% | 1014.8 hPa | 0 mm | - | 207 W/m² | - |
| 1777128558 | 10.56° C | 69% | 1014.8 hPa | 0 mm | - | 161 W/m² | - |
| 1777128254 | 10.56° C | 68% | 1014.5 hPa | 0 mm | - | 187 W/m² | - |
| 1777127953 | 11.11° C | 67% | 1014.4 hPa | 0 mm | - | 189 W/m² | - |
| 1777127650 | 11.11° C | 69% | 1014.6 hPa | 0 mm | - | 156 W/m² | - |
| 1777127346 | 10.56° C | 70% | 1014.5 hPa | 0 mm | - | 168 W/m² | - |
| 1777127042 | 10.56° C | 69% | 1014.7 hPa | 0 mm | - | 134 W/m² | - |
| 1777126738 | 10.56° C | 70% | 1014.7 hPa | 0 mm | - | 107 W/m² | - |
| 1777126435 | 10.56° C | 70% | 1014.5 hPa | 0 mm | - | 123 W/m² | - |
| 1777126130 | 10.56° C | 69% | 1014.5 hPa | 0 mm | - | 126 W/m² | - |
| 1777125826 | 10.56° C | 70% | 1014.4 hPa | 0 mm | - | 124 W/m² | - |
| 1777125523 | 10.56° C | 70% | 1014.4 hPa | 0 mm | - | 138 W/m² | - |
| 1777125217 | 10.56° C | 70% | 1014.3 hPa | 0 mm | - | 148 W/m² | - |
| 1777124913 | 10.56° C | 70% | 1014 hPa | 0 mm | - | 123 W/m² | - |
| 1777124611 | 10.56° C | 70% | 1014.1 hPa | 0 mm | - | 101 W/m² | - |
| 1777124306 | 10° C | 71% | 1014.2 hPa | 0 mm | - | 127 W/m² | - |
| 1777124003 | 10° C | 71% | 1014 hPa | 0 mm | - | 151 W/m² | - |
| 1777123699 | 10.56° C | 71% | 1014 hPa | 0 mm | - | 169 W/m² | - |
| 1777123396 | 10° C | 73% | 1013.9 hPa | 0 mm | - | 155 W/m² | - |
| 1777123092 | 10° C | 72% | 1014 hPa | 0 mm | - | 91 W/m² | - |
| 1777122788 | 10° C | 72% | 1014 hPa | 0 mm | - | 101 W/m² | - |
| 1777122484 | 10° C | 73% | 1014.2 hPa | 0 mm | - | 88 W/m² | - |
| 1777122181 | 10° C | 74% | 1014.4 hPa | 0 mm | - | 77 W/m² | - |
* Rain latest hour (hover to see other rain measurements)
** Current wind speed in m/s (hover to see current wind gust speed)